Location: Unspecified
(0.0000°N, 0.0000°E)
Time: 17:39:48
(UTC+00:00)

Hubble Space Telescope - Pass Details

Date: 16 December 2018
Orbit: 537 x 540 km, 28.5° (Epoch: 11 December)

Event Time Altitude Azimuth Distance (km) Brightness Sun altitude
Exits shadow 04:42:22 19° 347° (NNW) 1,294 2.4 -16.7°
Maximum altitude 04:44:17 28° 29° (NNE) 1,025 2.2 -16.3°
Drops below altitude 10° 04:47:51 10° 89° (E) 1,783 4.5 -15.5°
Sets 04:50:21 0° 101° (E) 2,675 6.0 -14.9°
